Time,TemperatureF,DewpointF,PressureIn,WindDirection,WindDirectionDegrees,WindSpeedMPH,WindSpeedGustMPH,Humidity,HourlyPrecipIn,Conditions,Clouds,dailyrainin,SolarRadiationWatts/m^2,SoftwareType,DateUTC
2013-07-29 00:03:00,55.4,53.1,29.84,SW,222,11.1,16.1,92,0.00,,,0.00,0.0,WeatherDisplay:10.37,2013-07-29 07:03:00,
2013-07-29 00:08:00,55.4,53.1,29.84,SSW,195,12.6,17.3,92,0.00,,,0.00,0.0,WeatherDisplay:10.37,2013-07-29 07:08:00,
2013-07-29 00:13:00,55.4,53.1,29.84,SW,235,10.9,15.0,92,0.00,,,0.00,0.0,WeatherDisplay:10.37,2013-07-29 07:13:00,
2013-07-29 00:18:00,55.3,53.0,29.84,SW,216,12.7,19.6,92,0.00,,,0.00,0.0,WeatherDisplay:10.37,2013-07-29 07:18:00,
2013-07-29 00:23:00,55.3,53.0,29.84,SW,223,8.6,17.0,92,0.00,,,0.00,0.0,WeatherDisplay:10.37,2013-07-29 07:23:00,
2013-07-29 00:28:00,55.3,53.0,29.84,NW,308,7.7,12.7,92,0.00,,,0.00,0.0,WeatherDisplay:10.37,2013-07-29 07:28:00,
2013-07-29 00:33:00,55.3,53.0,29.84,WSW,252,12.8,18.4,92,0.00,,,0.00,0.0,WeatherDisplay:10.37,2013-07-29 07:33:00,
2013-07-29 00:38:00,55.3,53.0,29.84,WSW,237,6.2,10.4,92,0.00,,,0.00,0.0,WeatherDisplay:10.37,2013-07-29 07:38:00,
2013-07-29 00:43:00,55.3,53.0,29.84,SSW,194,8.6,16.1,92,0.00,,,0.00,0.0,WeatherDisplay:10.37,2013-07-29 07:43:00,
2013-07-29 00:48:00,55.3,53.0,29.84,SW,221,11.3,21.9,92,0.00,,,0.00,0.0,WeatherDisplay:10.37,2013-07-29 07:48:00,
2013-07-29 00:53:00,55.4,52.8,29.84,SW,225,10.2,16.1,91,0.00,,,0.00,0.0,WeatherDisplay:10.37,2013-07-29 07:53:00,
2013-07-29 00:58:00,55.4,52.8,29.84,SW,220,11.2,15.0,91,0.00,,,0.00,0.0,WeatherDisplay:10.37,2013-07-29 07:58:00,
2013-07-29 01:03:00,55.3,52.7,29.84,WSW,240,7.4,16.1,91,0.00,,,0.00,0.0,WeatherDisplay:10.37,2013-07-29 08:03:00,
2013-07-29 01:08:00,55.4,52.8,29.84,WSW,247,8.5,16.1,91,0.00,,,0.00,0.0,WeatherDisplay:10.37,2013-07-29 08:08:00,
2013-07-29 01:13:00,55.3,52.7,29.84,SW,217,11.2,16.1,91,0.00,,,0.00,0.0,WeatherDisplay:10.37,2013-07-29 08:13:00,
2013-07-29 01:18:00,55.3,52.7,29.84,SW,229,10.3,15.0,91,0.00,,,0.00,0.0,WeatherDisplay:10.37,2013-07-29 08:18:00,
2013-07-29 01:23:00,55.3,52.7,29.84,WSW,242,12.0,18.4,91,0.00,,,0.00,0.0,WeatherDisplay:10.37,2013-07-29 08:23:00,
2013-07-29 01:28:00,55.3,52.7,29.84,SW,224,13.4,15.0,91,0.00,,,0.00,0.0,WeatherDisplay:10.37,2013-07-29 08:28:00,
2013-07-29 01:33:00,55.3,52.7,29.84,SW,220,11.2,17.3,91,0.00,,,0.00,0.0,WeatherDisplay:10.37,2013-07-29 08:33:00,
2013-07-29 01:38:00,55.3,52.7,29.84,SW,215,12.4,18.4,91,0.00,,,0.00,0.0,WeatherDisplay:10.37,2013-07-29 08:38:00,
2013-07-29 01:43:00,55.3,52.7,29.84,South,190,9.0,12.7,91,0.00,,,0.00,0.0,WeatherDisplay:10.37,2013-07-29 08:43:00,
2013-07-29 01:48:00,55.3,52.7,29.84,SW,234,10.4,17.3,91,0.00,,,0.00,0.0,WeatherDisplay:10.37,2013-07-29 08:48:00,
2013-07-29 01:53:00,55.4,52.8,29.84,West,267,9.7,13.8,91,0.00,,,0.00,0.0,WeatherDisplay:10.37,2013-07-29 08:53:00,
2013-07-29 01:58:00,55.4,52.8,29.84,WSW,243,12.4,23.0,91,0.00,,,0.00,0.0,WeatherDisplay:10.37,2013-07-29 08:58:00,
2013-07-29 02:03:00,55.4,52.8,29.84,WSW,255,12.0,18.4,91,0.00,,,0.00,0.0,WeatherDisplay:10.37,2013-07-29 09:03:00,
2013-07-29 02:08:00,55.4,52.8,29.84,SW,231,12.5,17.3,91,0.00,,,0.00,0.0,WeatherDisplay:10.37,2013-07-29 09:08:00,
2013-07-29 02:13:00,55.4,52.8,29.84,SW,228,6.9,17.0,91,0.00,,,0.00,0.0,WeatherDisplay:10.37,2013-07-29 09:13:00,
2013-07-29 02:18:00,55.4,52.8,29.84,SW,229,8.4,16.1,91,0.00,,,0.00,0.0,WeatherDisplay:10.37,2013-07-29 09:18:00,
2013-07-29 02:23:00,55.4,52.8,29.84,WSW,244,9.2,13.8,91,0.00,,,0.00,0.0,WeatherDisplay:10.37,2013-07-29 09:23:00,
2013-07-29 02:28:00,55.4,52.8,29.84,SSW,203,8.6,15.0,91,0.00,,,0.00,0.0,WeatherDisplay:10.37,2013-07-29 09:28:00,
2013-07-29 02:33:00,55.3,52.7,29.84,SW,221,10.0,15.0,91,0.00,,,0.00,0.0,WeatherDisplay:10.37,2013-07-29 09:33:00,
2013-07-29 02:38:00,55.3,52.7,29.84,WSW,242,6.7,12.0,91,0.00,,,0.00,0.0,WeatherDisplay:10.37,2013-07-29 09:38:00,
2013-07-29 02:43:00,55.3,52.7,29.85,WSW,241,11.8,18.4,91,0.00,,,0.00,0.0,WeatherDisplay:10.37,2013-07-29 09:43:00,
2013-07-29 02:48:00,55.3,52.7,29.84,SW,225,6.4,12.7,91,0.00,,,0.00,0.0,WeatherDisplay:10.37,2013-07-29 09:48:00,
2013-07-29 02:53:00,55.3,52.7,29.84,SW,225,9.4,14.0,91,0.00,,,0.00,0.0,WeatherDisplay:10.37,2013-07-29 09:53:00,
2013-07-29 02:58:00,55.3,52.7,29.84,SW,229,12.1,18.0,91,0.00,,,0.00,0.0,WeatherDisplay:10.37,2013-07-29 09:58:00,
2013-07-29 03:03:00,55.3,52.7,29.84,SSW,198,5.3,13.8,91,0.00,,,0.00,0.0,WeatherDisplay:10.37,2013-07-29 10:03:00,
2013-07-29 03:08:00,55.3,52.7,29.84,SW,227,6.9,14.0,91,0.00,,,0.00,0.0,WeatherDisplay:10.37,2013-07-29 10:08:00,
2013-07-29 03:13:00,55.3,52.7,29.84,SW,228,6.8,10.4,91,0.00,,,0.00,0.0,WeatherDisplay:10.37,2013-07-29 10:13:00,
2013-07-29 03:19:00,55.3,52.7,29.84,SW,225,10.8,15.0,91,0.00,,,0.00,0.0,WeatherDisplay:10.37,2013-07-29 10:19:00,
2013-07-29 03:24:00,55.3,53.0,29.84,WSW,239,8.0,12.0,92,0.00,,,0.00,0.0,WeatherDisplay:10.37,2013-07-29 10:24:00,
2013-07-29 03:29:00,55.4,53.1,29.85,SW,231,4.8,10.4,92,0.00,,,0.00,0.0,WeatherDisplay:10.37,2013-07-29 10:29:00,
2013-07-29 03:34:00,55.4,53.1,29.84,SW,223,6.7,16.1,92,0.00,,,0.00,0.0,WeatherDisplay:10.37,2013-07-29 10:34:00,
2013-07-29 03:39:00,55.4,53.1,29.84,SW,215,9.3,13.8,92,0.00,,,0.00,0.0,WeatherDisplay:10.37,2013-07-29 10:39:00,
2013-07-29 03:44:00,55.5,53.2,29.84,SW,227,6.0,8.1,92,0.00,,,0.00,0.0,WeatherDisplay:10.37,2013-07-29 10:44:00,
2013-07-29 03:50:00,55.5,53.2,29.84,SW,235,6.0,10.0,92,0.00,,,0.00,0.0,WeatherDisplay:10.37,2013-07-29 10:50:00,
2013-07-29 03:55:00,55.5,52.9,29.84,SW,227,6.0,13.0,91,0.00,,,0.00,0.0,WeatherDisplay:10.37,2013-07-29 10:55:00,
2013-07-29 04:00:00,55.5,52.9,29.84,SW,231,4.8,7.0,91,0.00,,,0.00,0.0,WeatherDisplay:10.37,2013-07-29 11:00:00,
2013-07-29 04:05:00,55.5,52.9,29.84,SSW,201,6.8,10.0,91,0.00,,,0.00,0.0,WeatherDisplay:10.37,2013-07-29 11:05:00,
2013-07-29 04:10:00,55.5,52.9,29.84,SW,220,6.9,6.9,91,0.00,,,0.00,0.0,WeatherDisplay:10.37,2013-07-29 11:10:00,
2013-07-29 04:16:00,55.5,52.9,29.84,WSW,237,2.0,4.6,91,0.00,,,0.00,0.0,WeatherDisplay:10.37,2013-07-29 11:16:00,
2013-07-29 04:21:00,55.5,53.2,29.84,SW,217,3.2,8.1,92,0.00,,,0.00,0.0,WeatherDisplay:10.37,2013-07-29 11:21:00,
2013-07-29 04:26:00,55.5,52.9,29.84,SW,231,7.8,12.7,91,0.00,,,0.00,0.0,WeatherDisplay:10.37,2013-07-29 11:26:00,
2013-07-29 04:32:00,55.4,52.8,29.84,SSW,210,5.1,6.9,91,0.00,,,0.00,0.0,WeatherDisplay:10.37,2013-07-29 11:32:00,
2013-07-29 04:37:00,55.4,52.8,29.84,WSW,237,8.1,16.1,91,0.00,,,0.00,0.0,WeatherDisplay:10.37,2013-07-29 11:37:00,
2013-07-29 04:42:00,55.4,52.8,29.84,SSW,210,9.2,13.8,91,0.00,,,0.00,0.0,WeatherDisplay:10.37,2013-07-29 11:42:00,
2013-07-29 04:48:00,55.4,52.8,29.84,SSW,197,6.4,11.5,91,0.00,,,0.00,0.0,WeatherDisplay:10.37,2013-07-29 11:48:00,
2013-07-29 04:53:00,55.4,52.8,29.84,WSW,247,7.2,10.4,91,0.00,,,0.00,0.0,WeatherDisplay:10.37,2013-07-29 11:53:00,
2013-07-29 04:58:00,55.4,52.8,29.85,SW,230,8.2,11.5,91,0.00,,,0.00,0.0,WeatherDisplay:10.37,2013-07-29 11:58:00,
2013-07-29 05:04:00,55.4,52.8,29.85,SW,229,4.5,6.9,91,0.00,,,0.00,0.0,WeatherDisplay:10.37,2013-07-29 12:04:00,
2013-07-29 05:09:00,55.4,52.8,29.85,SW,221,4.6,6.9,91,0.00,,,0.00,0.0,WeatherDisplay:10.37,2013-07-29 12:09:00,
2013-07-29 05:14:00,55.4,52.8,29.85,SW,223,5.1,11.0,91,0.00,,,0.00,0.0,WeatherDisplay:10.37,2013-07-29 12:14:00,
2013-07-29 05:19:00,55.4,52.8,29.85,SW,228,5.9,7.0,91,0.00,,,0.00,0.0,WeatherDisplay:10.37,2013-07-29 12:19:00,
2013-07-29 05:24:00,55.4,52.8,29.85,SW,229,0.0,0.0,91,0.00,,,0.00,0.0,WeatherDisplay:10.37,2013-07-29 12:24:00,
2013-07-29 05:30:00,55.4,52.8,29.85,SW,229,3.0,7.0,91,0.00,,,0.00,0.0,WeatherDisplay:10.37,2013-07-29 12:30:00,
2013-07-29 05:35:00,55.5,52.9,29.85,SW,230,6.0,10.0,91,0.00,,,0.00,0.0,WeatherDisplay:10.37,2013-07-29 12:35:00,
2013-07-29 05:40:00,55.4,52.8,29.85,SW,231,6.0,10.0,91,0.00,,,0.00,0.0,WeatherDisplay:10.37,2013-07-29 12:40:00,
2013-07-29 05:45:00,55.4,52.8,29.86,SW,235,2.3,5.8,91,0.00,,,0.00,0.0,WeatherDisplay:10.37,2013-07-29 12:45:00,
2013-07-29 05:50:00,55.3,52.7,29.86,SW,226,1.0,9.0,91,0.00,,,0.00,0.0,WeatherDisplay:10.37,2013-07-29 12:50:00,
2013-07-29 05:55:00,55.2,52.6,29.86,SW,220,2.3,3.5,91,0.00,,,0.00,0.0,WeatherDisplay:10.37,2013-07-29 12:55:00,
2013-07-29 06:01:00,55.2,52.6,29.87,SW,234,3.8,4.6,91,0.00,OVC,,0.00,0.0,WeatherDisplay:10.37,2013-07-29 13:01:00,
2013-07-29 06:06:00,55.3,52.7,29.87,SW,236,4.3,6.9,91,0.00,OVC,,0.00,0.0,WeatherDisplay:10.37,2013-07-29 13:06:00,
2013-07-29 06:11:00,55.4,52.8,29.87,SW,235,3.2,5.8,91,0.00,OVC,,0.00,0.0,WeatherDisplay:10.37,2013-07-29 13:11:00,
2013-07-29 06:16:00,55.5,52.9,29.87,WSW,237,4.7,5.8,91,0.00,OVC,,0.00,0.0,WeatherDisplay:10.37,2013-07-29 13:16:00,
2013-07-29 06:22:00,55.6,53.0,29.87,SW,231,1.7,6.9,91,0.00,OVC,,0.00,5.0,WeatherDisplay:10.37,2013-07-29 13:22:00,
2013-07-29 06:28:00,55.7,53.1,29.87,SW,231,4.4,5.0,91,0.00,OVC,,0.00,11.0,WeatherDisplay:10.37,2013-07-29 13:28:00,
2013-07-29 06:34:00,55.7,52.8,29.88,SW,233,1.8,3.5,90,0.00,OVC,,0.00,25.0,WeatherDisplay:10.37,2013-07-29 13:34:00,
2013-07-29 06:39:00,55.7,52.8,29.88,SSW,208,3.6,8.1,90,0.00,OVC,,0.00,40.0,WeatherDisplay:10.37,2013-07-29 13:39:00,
2013-07-29 06:44:00,55.8,52.9,29.88,SSW,210,3.4,6.9,90,0.00,OVC,,0.00,42.0,WeatherDisplay:10.37,2013-07-29 13:44:00,
2013-07-29 06:49:00,55.9,53.0,29.88,West,271,3.9,6.9,90,0.00,OVC,,0.00,25.0,WeatherDisplay:10.37,2013-07-29 13:49:00,
2013-07-29 06:55:00,56.0,53.1,29.89,SW,232,6.6,11.5,90,0.00,OVC,,0.00,25.0,WeatherDisplay:10.37,2013-07-29 13:55:00,
2013-07-29 07:00:00,56.1,52.9,29.89,SW,233,3.6,3.6,89,0.00,OVC,,0.00,26.0,WeatherDisplay:10.37,2013-07-29 14:00:00,
2013-07-29 07:05:00,56.2,53.0,29.89,SSW,212,6.2,11.5,89,0.00,OVC,,0.00,28.0,WeatherDisplay:10.37,2013-07-29 14:05:00,
2013-07-29 07:10:00,56.3,53.1,29.89,SW,220,7.8,11.5,89,0.00,OVC,,0.00,35.0,WeatherDisplay:10.37,2013-07-29 14:10:00,
2013-07-29 07:15:00,56.4,53.2,29.89,SSW,213,5.2,10.4,89,0.00,OVC,,0.00,37.0,WeatherDisplay:10.37,2013-07-29 14:15:00,
2013-07-29 07:20:00,56.4,52.9,29.89,South,180,10.4,12.7,88,0.00,OVC,,0.00,37.0,WeatherDisplay:10.37,2013-07-29 14:20:00,
2013-07-29 07:26:00,56.5,53.0,29.89,WSW,253,4.4,6.9,88,0.00,OVC,,0.00,47.0,WeatherDisplay:10.37,2013-07-29 14:26:00,
2013-07-29 07:32:00,56.6,53.1,29.90,SSW,212,9.2,12.7,88,0.00,OVC,,0.00,54.0,WeatherDisplay:10.37,2013-07-29 14:32:00,
2013-07-29 07:37:00,56.7,53.2,29.90,SW,226,12.2,18.4,88,0.00,OVC,,0.00,63.0,WeatherDisplay:10.37,2013-07-29 14:37:00,
2013-07-29 07:42:00,56.9,53.4,29.90,SW,219,3.3,5.8,88,0.00,OVC,,0.00,70.0,WeatherDisplay:10.37,2013-07-29 14:42:00,
2013-07-29 07:47:00,57.0,53.5,29.90,South,178,6.2,12.0,88,0.00,OVC,,0.00,79.0,WeatherDisplay:10.37,2013-07-29 14:47:00,
2013-07-29 07:53:00,57.3,53.8,29.90,SSW,210,1.1,2.3,88,0.00,BKN,,0.00,79.0,WeatherDisplay:10.37,2013-07-29 14:53:00,
2013-07-29 07:58:00,57.5,53.7,29.91,SW,225,5.8,15.0,87,0.00,BKN,,0.00,95.0,WeatherDisplay:10.37,2013-07-29 14:58:00,
2013-07-29 08:03:00,57.5,53.3,29.91,SW,220,9.1,15.0,86,0.00,BKN,,0.00,109.0,WeatherDisplay:10.37,2013-07-29 15:03:00,
2013-07-29 08:08:00,57.5,53.3,29.91,SW,219,4.2,11.5,86,0.00,BKN,,0.00,113.0,WeatherDisplay:10.37,2013-07-29 15:08:00,
2013-07-29 08:13:00,57.6,53.1,29.91,WSW,244,9.4,11.5,85,0.00,BKN,,0.00,214.0,WeatherDisplay:10.37,2013-07-29 15:13:00,
2013-07-29 08:19:00,57.7,53.2,29.91,SSW,207,5.3,9.2,85,0.00,BKN,,0.00,199.0,WeatherDisplay:10.37,2013-07-29 15:19:00,
2013-07-29 08:25:00,57.9,53.4,29.91,WSW,250,5.7,10.4,85,0.00,BKN,,0.00,211.0,WeatherDisplay:10.37,2013-07-29 15:25:00,
2013-07-29 08:30:00,58.1,53.6,29.91,SSW,206,10.7,13.8,85,0.00,BKN,,0.00,269.0,WeatherDisplay:10.37,2013-07-29 15:30:00,
2013-07-29 08:35:00,58.4,53.6,29.91,South,186,5.4,12.7,84,0.00,SCT,,0.00,454.0,WeatherDisplay:10.37,2013-07-29 15:35:00,
2013-07-29 08:41:00,58.6,53.8,29.91,SW,221,7.0,11.5,84,0.00,CLR,,0.00,413.0,WeatherDisplay:10.37,2013-07-29 15:41:00,
2013-07-29 08:46:00,59.0,54.8,29.92,WSW,251,3.8,5.8,86,0.00,CLR,,0.00,185.0,WeatherDisplay:10.37,2013-07-29 15:46:00,
2013-07-29 08:51:00,59.1,53.9,29.92,SW,228,7.0,12.7,83,0.00,SCT,,0.00,211.0,WeatherDisplay:10.37,2013-07-29 15:51:00,
2013-07-29 08:56:00,59.2,54.0,29.92,WSW,251,5.0,11.0,83,0.00,SCT,,0.00,308.0,WeatherDisplay:10.37,2013-07-29 15:56:00,
2013-07-29 09:01:00,59.3,54.1,29.92,SSW,193,7.1,11.5,83,0.00,SCT,,0.00,295.0,WeatherDisplay:10.37,2013-07-29 16:01:00,
2013-07-29 09:07:00,59.5,54.0,29.92,WSW,242,8.3,12.7,82,0.00,SCT,,0.00,267.0,WeatherDisplay:10.37,2013-07-29 16:07:00,
2013-07-29 09:13:00,59.5,53.7,29.92,WSW,248,8.4,13.8,81,0.00,SCT,,0.00,265.0,WeatherDisplay:10.37,2013-07-29 16:13:00,
2013-07-29 09:18:00,59.6,54.1,29.92,South,175,7.6,11.5,82,0.00,CLR,,0.00,462.0,WeatherDisplay:10.37,2013-07-29 16:18:00,
2013-07-29 09:23:00,60.0,54.5,29.92,SW,217,7.2,11.5,82,0.00,CLR,,0.00,580.0,WeatherDisplay:10.37,2013-07-29 16:23:00,
2013-07-29 09:28:00,60.5,54.3,29.92,SSW,200,9.7,13.8,80,0.00,CLR,,0.00,489.0,WeatherDisplay:10.37,2013-07-29 16:28:00,
2013-07-29 09:34:00,60.8,53.9,29.92,WSW,249,9.1,15.0,78,0.00,CLR,,0.00,434.0,WeatherDisplay:10.37,2013-07-29 16:34:00,
2013-07-29 09:39:00,60.9,54.0,29.92,SW,216,11.1,16.1,78,0.00,CLR,,0.00,612.0,WeatherDisplay:10.37,2013-07-29 16:39:00,
2013-07-29 09:44:00,61.1,54.2,29.92,SW,226,5.9,10.4,78,0.00,CLR,,0.00,304.0,WeatherDisplay:10.37,2013-07-29 16:44:00,
2013-07-29 09:49:00,61.2,53.9,29.92,WSW,253,7.8,12.7,77,0.00,CLR,,0.00,387.0,WeatherDisplay:10.37,2013-07-29 16:49:00,
2013-07-29 09:54:00,60.9,54.0,29.92,WSW,243,11.7,16.1,78,0.00,CLR,,0.00,364.0,WeatherDisplay:10.37,2013-07-29 16:54:00,
2013-07-29 09:59:00,60.9,54.0,29.93,SW,236,6.7,13.0,78,0.00,CLR,,0.00,341.0,WeatherDisplay:10.37,2013-07-29 16:59:00,
2013-07-29 10:05:00,60.9,54.0,29.93,WSW,237,9.0,17.0,78,0.00,CLR,,0.00,397.0,WeatherDisplay:10.37,2013-07-29 17:05:00,
2013-07-29 10:10:00,61.1,54.5,29.93,WSW,250,6.6,11.5,79,0.00,CLR,,0.00,708.0,WeatherDisplay:10.37,2013-07-29 17:10:00,
2013-07-29 10:15:00,61.5,54.6,29.93,SSW,204,8.3,13.8,78,0.00,CLR,,0.00,538.0,WeatherDisplay:10.37,2013-07-29 17:15:00,
2013-07-29 10:20:00,61.8,54.5,29.93,SW,227,11.1,16.1,77,0.00,CLR,,0.00,744.0,WeatherDisplay:10.37,2013-07-29 17:20:00,
2013-07-29 10:25:00,62.1,54.4,29.93,SW,235,8.9,13.0,76,0.00,CLR,,0.00,728.0,WeatherDisplay:10.37,2013-07-29 17:25:00,
2013-07-29 10:30:00,62.6,54.6,29.93,WSW,242,9.7,16.1,75,0.00,CLR,,0.00,765.0,WeatherDisplay:10.37,2013-07-29 17:30:00,
2013-07-29 10:35:00,62.5,54.8,29.94,WSW,250,10.2,17.3,76,0.00,CLR,,0.00,738.0,WeatherDisplay:10.37,2013-07-29 17:35:00,
2013-07-29 10:41:00,62.3,54.6,29.94,SW,230,9.0,16.1,76,0.00,CLR,,0.00,749.0,WeatherDisplay:10.37,2013-07-29 17:41:00,
2013-07-29 10:46:00,62.3,54.3,29.94,WSW,246,9.3,19.6,75,0.00,CLR,,0.00,773.0,WeatherDisplay:10.37,2013-07-29 17:46:00,
2013-07-29 10:51:00,62.6,54.6,29.94,WSW,256,10.0,17.3,75,0.00,CLR,,0.00,809.0,WeatherDisplay:10.37,2013-07-29 17:51:00,
2013-07-29 10:58:00,62.8,54.8,29.94,WSW,244,14.8,22.0,75,0.00,CLR,,0.00,726.0,WeatherDisplay:10.37,2013-07-29 17:58:00,
2013-07-29 11:03:00,62.5,54.5,29.94,SW,220,14.0,17.3,75,0.00,CLR,,0.00,810.0,WeatherDisplay:10.37,2013-07-29 18:03:00,
2013-07-29 11:09:00,62.5,54.8,29.95,NW,308,12.4,21.9,76,0.00,CLR,,0.00,812.0,WeatherDisplay:10.37,2013-07-29 18:09:00,
2013-07-29 11:14:00,62.8,55.1,29.95,WNW,285,12.9,19.6,76,0.00,CLR,,0.00,773.0,WeatherDisplay:10.37,2013-07-29 18:14:00,
2013-07-29 11:19:00,62.8,55.1,29.95,SW,233,10.9,15.0,76,0.00,CLR,,0.00,816.0,WeatherDisplay:10.37,2013-07-29 18:19:00,
2013-07-29 11:25:00,63.0,54.9,29.94,SW,233,13.0,26.0,75,0.00,CLR,,0.00,821.0,WeatherDisplay:10.37,2013-07-29 18:25:00,
2013-07-29 11:30:00,63.2,54.8,29.95,WSW,249,12.0,19.6,74,0.00,BKN,,0.00,823.0,WeatherDisplay:10.37,2013-07-29 18:30:00,
2013-07-29 11:35:00,63.0,54.6,29.95,SW,231,12.0,22.0,74,0.00,OVC,,0.00,817.0,WeatherDisplay:10.37,2013-07-29 18:35:00,
2013-07-29 11:40:00,63.0,54.6,29.95,SW,227,15.5,23.0,74,0.00,OVC,,0.00,828.0,WeatherDisplay:10.37,2013-07-29 18:40:00,
2013-07-29 11:45:00,63.0,54.9,29.95,SW,222,12.5,18.4,75,0.00,OVC,,0.00,844.0,WeatherDisplay:10.37,2013-07-29 18:45:00,
2013-07-29 11:51:00,63.2,54.8,29.95,SSW,201,10.5,18.4,74,0.00,OVC,,0.00,847.0,WeatherDisplay:10.37,2013-07-29 18:51:00,
2013-07-29 11:56:00,63.5,55.1,29.94,SW,232,7.7,18.4,74,0.00,OVC,,0.00,844.0,WeatherDisplay:10.37,2013-07-29 18:56:00,
2013-07-29 12:01:00,63.6,55.2,29.95,SW,225,11.6,21.9,74,0.00,OVC,,0.00,849.0,WeatherDisplay:10.37,2013-07-29 19:01:00,
2013-07-29 12:06:00,63.5,55.1,29.95,WSW,240,11.8,20.7,74,0.00,OVC,,0.00,853.0,WeatherDisplay:10.37,2013-07-29 19:06:00,
2013-07-29 12:12:00,63.6,55.2,29.95,SW,236,15.7,21.9,74,0.00,OVC,,0.00,860.0,WeatherDisplay:10.37,2013-07-29 19:12:00,
2013-07-29 12:17:00,63.7,55.3,29.95,SW,224,11.1,17.3,74,0.00,OVC,,0.00,858.0,WeatherDisplay:10.37,2013-07-29 19:17:00,
2013-07-29 12:22:00,63.8,55.4,29.95,SW,231,11.2,16.0,74,0.00,OVC,,0.00,865.0,WeatherDisplay:10.37,2013-07-29 19:22:00,
2013-07-29 12:27:00,63.9,55.8,29.95,SW,231,11.2,18.4,75,0.00,OVC,,0.00,874.0,WeatherDisplay:10.37,2013-07-29 19:27:00,
2013-07-29 12:32:00,64.2,55.7,29.95,SW,220,10.8,17.3,74,0.00,OVC,,0.00,870.0,WeatherDisplay:10.37,2013-07-29 19:32:00,
2013-07-29 12:37:00,64.2,55.4,29.95,SSW,213,11.1,18.4,73,0.00,OVC,,0.00,874.0,WeatherDisplay:10.37,2013-07-29 19:37:00,
2013-07-29 12:42:00,64.1,55.6,29.96,SW,225,10.1,17.3,74,0.00,OVC,,0.00,879.0,WeatherDisplay:10.37,2013-07-29 19:42:00,
2013-07-29 12:48:00,64.0,55.5,29.96,SSW,192,9.4,15.0,74,0.00,OVC,,0.00,874.0,WeatherDisplay:10.37,2013-07-29 19:48:00,
2013-07-29 12:53:00,64.3,55.5,29.96,WSW,256,14.6,19.6,73,0.00,OVC,,0.00,879.0,WeatherDisplay:10.37,2013-07-29 19:53:00,
2013-07-29 12:58:00,64.4,55.6,29.96,SW,227,12.3,24.2,73,0.00,OVC,,0.00,881.0,WeatherDisplay:10.37,2013-07-29 19:58:00,
2013-07-29 13:03:00,64.0,55.2,29.96,SW,219,10.8,16.1,73,0.00,OVC,,0.00,865.0,WeatherDisplay:10.37,2013-07-29 20:03:00,
2013-07-29 13:08:00,63.9,55.1,29.96,WSW,254,11.6,19.6,73,0.00,OVC,,0.00,860.0,WeatherDisplay:10.37,2013-07-29 20:08:00,
2013-07-29 13:13:00,63.9,55.4,29.96,SW,224,8.3,16.1,74,0.00,OVC,,0.00,865.0,WeatherDisplay:10.37,2013-07-29 20:13:00,
2013-07-29 13:19:00,64.3,55.5,29.95,WSW,244,10.2,19.6,73,0.00,OVC,,0.00,858.0,WeatherDisplay:10.37,2013-07-29 20:19:00,
2013-07-29 13:24:00,64.3,55.5,29.96,SW,216,16.2,20.7,73,0.00,OVC,,0.00,863.0,WeatherDisplay:10.37,2013-07-29 20:24:00,
2013-07-29 13:29:00,64.3,55.5,29.96,SSW,212,13.3,21.9,73,0.00,OVC,,0.00,860.0,WeatherDisplay:10.37,2013-07-29 20:29:00,
2013-07-29 13:34:00,64.1,55.3,29.96,SW,216,10.2,19.6,73,0.00,OVC,,0.00,858.0,WeatherDisplay:10.37,2013-07-29 20:34:00,
2013-07-29 13:39:00,64.0,55.2,29.96,SW,217,14.9,24.2,73,0.00,OVC,,0.00,854.0,WeatherDisplay:10.37,2013-07-29 20:39:00,
2013-07-29 13:44:00,63.9,55.1,29.96,SW,227,9.3,19.6,73,0.00,OVC,,0.00,856.0,WeatherDisplay:10.37,2013-07-29 20:44:00,
2013-07-29 13:49:00,63.8,55.0,29.96,WSW,251,14.5,19.6,73,0.00,OVC,,0.00,842.0,WeatherDisplay:10.37,2013-07-29 20:49:00,
2013-07-29 13:54:00,63.5,55.8,29.95,WSW,244,11.8,16.1,76,0.00,OVC,,0.00,846.0,WeatherDisplay:10.37,2013-07-29 20:54:00,
2013-07-29 13:59:00,63.4,55.4,29.95,SW,224,13.0,25.0,75,0.00,OVC,,0.00,842.0,WeatherDisplay:10.37,2013-07-29 20:59:00,
2013-07-29 14:04:00,63.4,55.3,29.96,ESE,117,12.2,17.3,75,0.00,OVC,,0.00,854.0,WeatherDisplay:10.37,2013-07-29 21:04:00,
2013-07-29 14:11:00,63.4,55.7,29.96,SSW,192,11.5,17.3,76,0.00,OVC,,0.00,875.0,WeatherDisplay:10.37,2013-07-29 21:11:00,
2013-07-29 14:17:00,63.4,55.7,29.95,SSW,198,8.4,12.7,76,0.00,OVC,,0.00,837.0,WeatherDisplay:10.37,2013-07-29 21:17:00,
2013-07-29 14:22:00,63.0,55.3,29.96,SW,220,10.8,18.4,76,0.00,OVC,,0.00,810.0,WeatherDisplay:10.37,2013-07-29 21:22:00,
2013-07-29 14:28:00,62.9,55.6,29.96,SSW,208,15.5,20.7,77,0.00,OVC,,0.00,844.0,WeatherDisplay:10.37,2013-07-29 21:28:00,
2013-07-29 14:34:00,62.9,55.2,29.95,WSW,248,13.9,21.9,76,0.00,OVC,,0.00,828.0,WeatherDisplay:10.37,2013-07-29 21:34:00,
2013-07-29 14:39:00,62.6,55.6,29.95,WSW,254,11.7,15.0,78,0.00,OVC,,0.00,840.0,WeatherDisplay:10.37,2013-07-29 21:39:00,
2013-07-29 14:44:00,62.6,55.6,29.96,SW,215,11.4,17.3,78,0.00,OVC,,0.00,870.0,WeatherDisplay:10.37,2013-07-29 21:44:00,
2013-07-29 14:49:00,62.8,55.8,29.96,West,269,5.9,18.4,78,0.00,OVC,,0.00,882.0,WeatherDisplay:10.37,2013-07-29 21:49:00,
2013-07-29 14:54:00,63.1,55.8,29.96,WSW,256,14.8,16.1,77,0.00,OVC,,0.00,786.0,WeatherDisplay:10.37,2013-07-29 21:54:00,
2013-07-29 14:59:00,62.9,55.6,29.96,WSW,241,14.0,27.0,77,0.00,OVC,,0.00,788.0,WeatherDisplay:10.37,2013-07-29 21:59:00,
2013-07-29 15:04:00,62.5,55.5,29.96,WSW,241,13.3,19.6,78,0.00,OVC,,0.00,805.0,WeatherDisplay:10.37,2013-07-29 22:04:00,
2013-07-29 15:09:00,62.4,55.8,29.96,SW,236,10.0,20.0,79,0.00,OVC,,0.00,650.0,WeatherDisplay:10.37,2013-07-29 22:09:00,
2013-07-29 15:14:00,62.6,56.0,29.96,West,269,10.0,12.7,79,0.00,OVC,,0.00,838.0,WeatherDisplay:10.37,2013-07-29 22:14:00,
2013-07-29 15:20:00,63.1,56.1,29.95,South,171,10.5,18.4,78,0.00,OVC,,0.00,902.0,WeatherDisplay:10.37,2013-07-29 22:20:00,
2013-07-29 15:25:00,63.0,55.7,29.95,WSW,239,6.6,8.1,77,0.00,OVC,,0.00,779.0,WeatherDisplay:10.37,2013-07-29 22:25:00,
2013-07-29 15:31:00,62.9,55.6,29.95,West,275,9.7,19.6,77,0.00,OVC,,0.00,795.0,WeatherDisplay:10.37,2013-07-29 22:31:00,
2013-07-29 15:37:00,62.6,56.0,29.96,WSW,242,10.5,13.8,79,0.00,OVC,,0.00,722.0,WeatherDisplay:10.37,2013-07-29 22:37:00,
2013-07-29 15:42:00,62.2,55.3,29.96,SW,234,12.0,18.4,78,0.00,OVC,,0.00,705.0,WeatherDisplay:10.37,2013-07-29 22:42:00,
2013-07-29 15:47:00,62.1,55.5,29.96,WSW,244,15.1,25.3,79,0.00,OVC,,0.00,724.0,WeatherDisplay:10.37,2013-07-29 22:47:00,
2013-07-29 15:52:00,61.9,55.7,29.96,SW,223,9.9,13.8,80,0.00,OVC,,0.00,670.0,WeatherDisplay:10.37,2013-07-29 22:52:00,
2013-07-29 15:57:00,61.9,55.3,29.96,SW,232,16.0,20.7,79,0.00,OVC,,0.00,615.0,WeatherDisplay:10.37,2013-07-29 22:57:00,
2013-07-29 16:03:00,62.0,55.4,29.96,SW,228,15.7,19.6,79,0.00,OVC,,0.00,649.0,WeatherDisplay:10.37,2013-07-29 23:03:00,
2013-07-29 16:08:00,62.0,55.1,29.96,WNW,296,7.6,19.6,78,0.00,OVC,,0.00,675.0,WeatherDisplay:10.37,2013-07-29 23:08:00,
2013-07-29 16:13:00,62.1,55.5,29.95,SW,235,10.6,16.0,79,0.00,OVC,,0.00,561.0,WeatherDisplay:10.37,2013-07-29 23:13:00,
2013-07-29 16:18:00,62.2,55.6,29.95,West,267,6.6,20.7,79,0.00,OVC,,0.00,499.0,WeatherDisplay:10.37,2013-07-29 23:18:00,
2013-07-29 16:23:00,62.2,55.3,29.96,WSW,239,9.5,20.7,78,0.00,OVC,,0.00,573.0,WeatherDisplay:10.37,2013-07-29 23:23:00,
2013-07-29 16:29:00,62.1,55.2,29.95,SSW,209,10.5,15.0,78,0.00,OVC,,0.00,531.0,WeatherDisplay:10.37,2013-07-29 23:29:00,
2013-07-29 16:34:00,61.8,55.2,29.95,WSW,243,9.3,18.4,79,0.00,OVC,,0.00,369.0,WeatherDisplay:10.37,2013-07-29 23:34:00,
2013-07-29 16:39:00,61.7,55.5,29.96,SW,219,5.6,12.7,80,0.00,OVC,,0.00,332.0,WeatherDisplay:10.37,2013-07-29 23:39:00,
2013-07-29 16:44:00,61.8,55.2,29.96,WNW,289,10.2,16.1,79,0.00,OVC,,0.00,302.0,WeatherDisplay:10.37,2013-07-29 23:44:00,
2013-07-29 16:49:00,61.4,55.2,29.96,WSW,246,6.3,11.5,80,0.00,OVC,,0.00,260.0,WeatherDisplay:10.37,2013-07-29 23:49:00,
2013-07-29 16:55:00,61.2,55.0,29.96,NNW,333,9.4,11.5,80,0.00,OVC,,0.00,297.0,WeatherDisplay:10.37,2013-07-29 23:55:00,
2013-07-29 17:00:00,60.9,54.7,29.96,WSW,254,9.0,24.0,80,0.00,OVC,,0.00,253.0,WeatherDisplay:10.37,2013-07-30 00:00:00,
2013-07-29 17:05:00,60.7,54.8,29.96,SW,231,10.0,11.5,81,0.00,OVC,,0.00,258.0,WeatherDisplay:10.37,2013-07-30 00:05:00,
2013-07-29 17:10:00,60.7,55.2,29.96,SSW,213,8.5,13.0,82,0.00,OVC,,0.00,323.0,WeatherDisplay:10.37,2013-07-30 00:10:00,
2013-07-29 17:15:00,60.8,54.9,29.96,SW,229,7.9,10.4,81,0.00,OVC,,0.00,218.0,WeatherDisplay:10.37,2013-07-30 00:15:00,
2013-07-29 17:22:00,60.9,54.7,29.95,WNW,286,5.6,10.4,80,0.00,OVC,,0.00,221.0,WeatherDisplay:10.37,2013-07-30 00:22:00,
2013-07-29 17:27:00,60.9,54.3,29.95,SSW,212,11.3,17.3,79,0.00,OVC,,0.00,218.0,WeatherDisplay:10.37,2013-07-30 00:27:00,
2013-07-29 17:33:00,60.7,54.5,29.95,West,270,10.2,15.0,80,0.00,OVC,,0.00,192.0,WeatherDisplay:10.37,2013-07-30 00:33:00,
2013-07-29 17:38:00,60.5,54.6,29.95,West,261,6.6,16.1,81,0.00,OVC,,0.00,202.0,WeatherDisplay:10.37,2013-07-30 00:38:00,
2013-07-29 17:43:00,60.5,54.6,29.96,WSW,248,6.5,9.2,81,0.00,OVC,,0.00,188.0,WeatherDisplay:10.37,2013-07-30 00:43:00,
2013-07-29 17:48:00,60.4,54.5,29.96,NNW,329,6.3,15.0,81,0.00,OVC,,0.00,211.0,WeatherDisplay:10.37,2013-07-30 00:48:00,
2013-07-29 17:53:00,60.1,54.6,29.95,WSW,258,8.8,15.0,82,0.00,OVC,,0.00,185.0,WeatherDisplay:10.37,2013-07-30 00:53:00,
2013-07-29 17:59:00,60.1,54.6,29.96,SW,220,8.3,16.0,82,0.00,OVC,,0.00,172.0,WeatherDisplay:10.37,2013-07-30 00:59:00,
2013-07-29 18:04:00,59.9,54.4,29.95,SW,231,8.1,13.8,82,0.00,OVC,,0.00,158.0,WeatherDisplay:10.37,2013-07-30 01:04:00,
2013-07-29 18:09:00,59.8,54.6,29.95,WNW,294,4.1,8.1,83,0.00,OVC,,0.00,153.0,WeatherDisplay:10.37,2013-07-30 01:09:00,
2013-07-29 18:14:00,59.8,54.6,29.95,WSW,258,6.5,10.4,83,0.00,OVC,,0.00,139.0,WeatherDisplay:10.37,2013-07-30 01:14:00,
2013-07-29 18:19:00,59.8,54.6,29.95,SW,219,7.9,15.0,83,0.00,OVC,,0.00,134.0,WeatherDisplay:10.37,2013-07-30 01:19:00,
2013-07-29 18:24:00,59.7,54.5,29.95,WSW,242,3.2,5.8,83,0.00,OVC,,0.00,134.0,WeatherDisplay:10.37,2013-07-30 01:24:00,
2013-07-29 18:29:00,59.5,54.3,29.95,WSW,244,14.2,19.6,83,0.00,OVC,,0.00,128.0,WeatherDisplay:10.37,2013-07-30 01:29:00,
2013-07-29 18:35:00,59.3,54.1,29.95,SW,232,10.0,18.0,83,0.00,OVC,,0.00,120.0,WeatherDisplay:10.37,2013-07-30 01:35:00,
2013-07-29 18:40:00,59.2,54.0,29.95,West,267,14.8,21.9,83,0.00,OVC,,0.00,118.0,WeatherDisplay:10.37,2013-07-30 01:40:00,
2013-07-29 18:45:00,59.0,54.2,29.95,WNW,283,10.9,13.8,84,0.00,OVC,,0.00,97.0,WeatherDisplay:10.37,2013-07-30 01:45:00,
2013-07-29 18:51:00,58.8,54.0,29.95,SW,228,13.9,19.6,84,0.00,OVC,,0.00,91.0,WeatherDisplay:10.37,2013-07-30 01:51:00,
2013-07-29 18:56:00,58.7,54.2,29.95,SW,235,8.7,15.0,85,0.00,OVC,,0.00,81.0,WeatherDisplay:10.37,2013-07-30 01:56:00,
2013-07-29 19:01:00,58.6,54.1,29.95,West,269,10.4,12.7,85,0.00,OVC,,0.00,77.0,WeatherDisplay:10.37,2013-07-30 02:01:00,
2013-07-29 19:06:00,58.6,54.1,29.95,WSW,239,12.7,23.0,85,0.00,OVC,,0.00,74.0,WeatherDisplay:10.37,2013-07-30 02:06:00,
2013-07-29 19:12:00,58.3,53.8,29.95,West,260,10.0,25.3,85,0.00,OVC,,0.00,63.0,WeatherDisplay:10.37,2013-07-30 02:12:00,
2013-07-29 19:17:00,58.2,53.7,29.95,WSW,256,7.0,11.5,85,0.00,OVC,,0.00,54.0,WeatherDisplay:10.37,2013-07-30 02:17:00,
2013-07-29 19:22:00,58.2,54.0,29.95,SW,229,5.3,13.8,86,0.00,OVC,,0.00,44.0,WeatherDisplay:10.37,2013-07-30 02:22:00,
2013-07-29 19:27:00,58.1,53.9,29.95,SW,231,6.7,13.8,86,0.00,OVC,,0.00,39.0,WeatherDisplay:10.37,2013-07-30 02:27:00,
2013-07-29 19:32:00,58.0,53.8,29.95,WSW,252,8.0,11.5,86,0.00,OVC,,0.00,37.0,WeatherDisplay:10.37,2013-07-30 02:32:00,
2013-07-29 19:38:00,57.9,53.7,29.95,West,281,9.6,19.6,86,0.00,OVC,,0.00,33.0,WeatherDisplay:10.37,2013-07-30 02:38:00,
2013-07-29 19:43:00,57.8,53.6,29.95,WSW,256,5.0,8.0,86,0.00,OVC,,0.00,28.0,WeatherDisplay:10.37,2013-07-30 02:43:00,
2013-07-29 19:48:00,57.7,53.5,29.95,SSW,213,6.7,11.5,86,0.00,OVC,,0.00,23.0,WeatherDisplay:10.37,2013-07-30 02:48:00,
2013-07-29 19:54:00,57.7,53.9,29.96,WSW,248,12.8,17.3,87,0.00,OVC,,0.00,18.0,WeatherDisplay:10.37,2013-07-30 02:54:00,
2013-07-29 19:59:00,57.6,53.8,29.96,SW,227,11.1,18.4,87,0.00,OVC,,0.00,14.0,WeatherDisplay:10.37,2013-07-30 02:59:00,
2013-07-29 20:04:00,57.5,53.7,29.96,SW,233,8.8,13.8,87,0.00,OVC,,0.00,9.0,WeatherDisplay:10.37,2013-07-30 03:04:00,
2013-07-29 20:09:00,57.5,53.7,29.96,West,278,6.3,10.4,87,0.00,OVC,,0.00,7.0,WeatherDisplay:10.37,2013-07-30 03:09:00,
2013-07-29 20:14:00,57.5,53.7,29.96,SW,224,8.8,11.5,87,0.00,OVC,,0.00,0.0,WeatherDisplay:10.37,2013-07-30 03:14:00,
2013-07-29 20:19:00,57.4,53.6,29.96,SW,225,10.7,19.6,87,0.00,OVC,,0.00,0.0,WeatherDisplay:10.37,2013-07-30 03:19:00,
2013-07-29 20:24:00,57.3,53.8,29.96,SW,223,12.0,16.1,88,0.00,OVC,,0.00,0.0,WeatherDisplay:10.37,2013-07-30 03:24:00,
2013-07-29 20:30:00,57.3,53.8,29.96,WSW,252,8.0,20.0,88,0.00,OVC,,0.00,0.0,WeatherDisplay:10.37,2013-07-30 03:30:00,
2013-07-29 20:35:00,57.3,53.8,29.96,West,277,8.3,12.7,88,0.00,OVC,,0.00,0.0,WeatherDisplay:10.37,2013-07-30 03:35:00,
2013-07-29 20:40:00,57.3,53.8,29.96,NW,313,4.7,11.5,88,0.00,OVC,,0.00,0.0,WeatherDisplay:10.37,2013-07-30 03:40:00,
2013-07-29 20:46:00,57.2,53.7,29.96,WSW,243,8.4,12.7,88,0.00,OVC,,0.00,0.0,WeatherDisplay:10.37,2013-07-30 03:46:00,
2013-07-29 20:52:00,57.2,53.7,29.96,WNW,288,10.1,15.0,88,0.00,OVC,,0.00,0.0,WeatherDisplay:10.37,2013-07-30 03:52:00,
2013-07-29 20:57:00,57.2,53.7,29.96,SW,235,12.5,17.3,88,0.00,OVC,,0.00,0.0,WeatherDisplay:10.37,2013-07-30 03:57:00,
2013-07-29 21:01:00,57.2,53.7,29.96,SW,233,10.0,13.8,88,0.00,OVC,,0.00,0.0,WeatherDisplay:10.37,2013-07-30 04:01:00,
2013-07-29 21:02:00,57.2,53.7,29.96,SW,222,5.8,11.5,88,0.00,OVC,,0.00,0.0,WeatherDisplay:10.37,2013-07-30 04:02:00,
2013-07-29 21:07:00,57.1,53.6,29.97,WSW,251,12.1,15.0,88,0.00,OVC,,0.00,0.0,WeatherDisplay:10.37,2013-07-30 04:07:00,
2013-07-29 21:13:00,57.1,53.6,29.97,WSW,255,6.1,11.5,88,0.00,OVC,,0.00,0.0,WeatherDisplay:10.37,2013-07-30 04:13:00,
2013-07-29 21:18:00,57.1,53.6,29.97,SW,229,9.0,15.0,88,0.00,OVC,,0.00,0.0,WeatherDisplay:10.37,2013-07-30 04:18:00,
2013-07-29 21:23:00,57.1,53.6,29.97,WNW,297,6.7,11.5,88,0.00,OVC,,0.00,0.0,WeatherDisplay:10.37,2013-07-30 04:23:00,
2013-07-29 21:28:00,57.1,53.6,29.97,WSW,247,10.9,17.3,88,0.00,OVC,,0.00,0.0,WeatherDisplay:10.37,2013-07-30 04:28:00,
2013-07-29 21:33:00,57.0,53.5,29.98,WSW,250,9.2,17.3,88,0.00,OVC,,0.00,0.0,WeatherDisplay:10.37,2013-07-30 04:33:00,
2013-07-29 21:38:00,57.0,53.8,29.98,WSW,239,5.1,12.0,89,0.00,OVC,,0.00,0.0,WeatherDisplay:10.37,2013-07-30 04:38:00,
2013-07-29 21:43:00,57.0,53.8,29.98,SW,235,4.7,6.9,89,0.00,OVC,,0.00,0.0,WeatherDisplay:10.37,2013-07-30 04:43:00,
2013-07-29 21:48:00,57.0,53.8,29.99,WSW,240,6.6,15.0,89,0.00,OVC,,0.00,0.0,WeatherDisplay:10.37,2013-07-30 04:48:00,
2013-07-29 21:53:00,56.9,53.7,29.99,WSW,252,6.9,11.5,89,0.00,OVC,,0.00,0.0,WeatherDisplay:10.37,2013-07-30 04:53:00,
2013-07-29 21:58:00,56.9,53.7,29.99,WSW,242,12.0,18.4,89,0.00,OVC,,0.00,0.0,WeatherDisplay:10.37,2013-07-30 04:58:00,
2013-07-29 22:03:00,56.8,53.6,29.99,SW,227,5.8,12.7,89,0.00,OVC,,0.00,0.0,WeatherDisplay:10.37,2013-07-30 05:03:00,
2013-07-29 22:08:00,56.8,53.6,29.99,WSW,239,8.8,12.7,89,0.00,OVC,,0.00,0.0,WeatherDisplay:10.37,2013-07-30 05:08:00,
2013-07-29 22:13:00,56.7,53.5,29.99,WNW,299,11.2,17.3,89,0.00,OVC,,0.00,0.0,WeatherDisplay:10.37,2013-07-30 05:13:00,
2013-07-29 22:18:00,56.7,53.5,29.99,WSW,251,8.2,11.5,89,0.00,OVC,,0.00,0.0,WeatherDisplay:10.37,2013-07-30 05:18:00,
2013-07-29 22:23:00,56.7,53.5,29.99,SW,220,5.0,11.5,89,0.00,OVC,,0.00,0.0,WeatherDisplay:10.37,2013-07-30 05:23:00,
2013-07-29 22:28:00,56.7,53.5,29.99,WSW,258,9.0,12.7,89,0.00,OVC,,0.00,0.0,WeatherDisplay:10.37,2013-07-30 05:28:00,
2013-07-29 22:33:00,56.6,53.4,29.99,SW,232,4.7,8.1,89,0.00,OVC,,0.00,0.0,WeatherDisplay:10.37,2013-07-30 05:33:00,
2013-07-29 22:38:00,56.6,53.4,29.99,WSW,246,6.3,9.2,89,0.00,OVC,,0.00,0.0,WeatherDisplay:10.37,2013-07-30 05:38:00,
2013-07-29 22:43:00,56.6,53.4,29.99,SSW,208,5.8,9.0,89,0.00,OVC,,0.00,0.0,WeatherDisplay:10.37,2013-07-30 05:43:00,
2013-07-29 22:48:00,56.6,53.7,29.99,SW,223,7.0,12.7,90,0.00,OVC,,0.00,0.0,WeatherDisplay:10.37,2013-07-30 05:48:00,
2013-07-29 22:53:00,56.5,53.6,29.99,SW,231,7.4,14.0,90,0.00,OVC,,0.00,0.0,WeatherDisplay:10.37,2013-07-30 05:53:00,
2013-07-29 22:58:00,56.5,53.6,29.99,WSW,243,7.9,12.7,90,0.00,OVC,,0.00,0.0,WeatherDisplay:10.37,2013-07-30 05:58:00,
2013-07-29 23:03:00,56.5,53.6,29.99,SW,228,5.8,11.5,90,0.00,OVC,,0.00,0.0,WeatherDisplay:10.37,2013-07-30 06:03:00,
2013-07-29 23:08:00,56.5,53.6,29.99,WSW,248,7.1,12.7,90,0.00,OVC,,0.00,0.0,WeatherDisplay:10.37,2013-07-30 06:08:00,
2013-07-29 23:13:00,56.6,53.7,29.99,SSW,210,8.1,16.1,90,0.00,OVC,,0.00,0.0,WeatherDisplay:10.37,2013-07-30 06:13:00,
2013-07-29 23:18:00,56.5,53.6,29.99,SW,232,6.0,10.4,90,0.00,OVC,,0.00,0.0,WeatherDisplay:10.37,2013-07-30 06:18:00,
2013-07-29 23:23:00,56.5,53.6,29.99,SW,216,7.5,13.0,90,0.00,OVC,,0.00,0.0,WeatherDisplay:10.37,2013-07-30 06:23:00,
2013-07-29 23:28:00,56.6,53.7,29.99,WSW,239,7.0,16.1,90,0.00,OVC,,0.00,0.0,WeatherDisplay:10.37,2013-07-30 06:28:00,
2013-07-29 23:33:00,56.5,53.6,30.00,SW,229,8.6,13.8,90,0.00,OVC,,0.00,0.0,WeatherDisplay:10.37,2013-07-30 06:33:00,
2013-07-29 23:38:00,56.5,53.6,30.00,WSW,243,6.9,11.5,90,0.00,OVC,,0.00,0.0,WeatherDisplay:10.37,2013-07-30 06:38:00,
2013-07-29 23:43:00,56.5,53.6,30.00,SW,231,5.0,9.2,90,0.00,OVC,,0.00,0.0,WeatherDisplay:10.37,2013-07-30 06:43:00,
2013-07-29 23:48:00,56.5,53.6,30.00,WSW,237,7.4,16.1,90,0.00,OVC,,0.00,0.0,WeatherDisplay:10.37,2013-07-30 06:48:00,
2013-07-29 23:53:00,56.5,53.6,30.00,WSW,240,7.3,11.0,90,0.00,OVC,,0.00,0.0,WeatherDisplay:10.37,2013-07-30 06:53:00,
2013-07-29 23:58:00,56.4,53.5,30.00,SW,221,10.1,11.5,90,0.00,OVC,,0.00,0.0,WeatherDisplay:10.37,2013-07-30 06:58:00,